829  
ASUS43 KIND 181009  
RWRIN  
 
WEATHER ROUNDUP FOR INDIANA  
NATIONAL WEATHER SERVICE INDIANAPOLIS IN  
600 AM EDT FRI SEP 18 2020  
 
NOTE: "FAIR" INDICATES FEW OR NO CLOUDS BELOW 12,000 FEET WITH NO  
SIGNIFICANT WEATHER AND/OR S TO VISIBILITY
.  
 
* - STATION DOES NOT REPORT WEATHER SUCH AS PRECIPITATION OR FOG.
 
 
+ - STATION NOT QUALITY CONTROLLED BY THE NATIONAL WEATHER SERVICE.  
USE DATA WITH CAUTION...ESPECIALLY DEWPOINT AND RELATIVE  
HUMIDITY OBSERVATIONS.  
 
INZ001>003-010>013-019-020-181100-  
NORTHWEST INDIANA  
 
CITY SKY/WX TMP DP RH WIND PRES REMARKS
 
GARY /AIRPORT/ MOCLDY 57 45 62 NE12 30.25R  
KNOX *+ FAIR 45 43 93 N8 30.24R  
LA PORTE + FAIR 47 43 85 NE7 30.26R  
MICHIGAN CITY+ FAIR 45 45 100 CALM 30.27R  
MONTICELLO + FAIR 49 44 83 N7 30.21R  
RENSSELAER + FAIR 48 43 81 CALM 30.23R  
VALPARAISO FAIR 47 42 83 NE5 30.25R  
 

 
 
LMZ046-743>745-181100-  
SOUTHERN LAKE MICHIGAN  
 
STATION/POSITION TIME TEMP WIND PRES WAVE
 
AIR SEA DIR/SP/G HT  
(UTC) (F) (DEG/KT/KT) (MB) (FT)  
MICHIGAN CITY 0940 53 70/ 15/ 17 N/A  
 

 
 
INZ004-005-014>016-021>024-181100-  
NORTH CENTRAL INDIANA  
 
CITY SKY/WX TMP DP RH WIND PRES REMARKS
 
GOSHEN CLEAR 47 42 83 NE8 30.23R  
LOGANSPORT + FAIR 48 45 87 N6 30.21R  
PERU/GRISSOM FAIR 48 47 99 NE8 30.19R  
PLYMOUTH *+ CLOUDY 48 43 81 NE6 30.23R  
ROCHESTER + FAIR 48 43 81 N8 30.22R  
SOUTH BEND FAIR 46 42 86 N8 30.26R  
WARSAW + CLEAR 46 43 87 NE8 30.23R  
 

 
 
INZ006>009-017-018-025>027-181100-  
NORTHEAST INDIANA  
 
CITY SKY/WX TMP DP RH WIND PRES REMARKS
 
ANGOLA *+ N/A 48 39 71 NE8G18 30.23R  
AUBURN + CLEAR 45 41 87 N6 30.23R  
FORT WAYNE CLEAR 49 43 80 N10 30.21R  
HUNTINGTON + CLEAR 46 43 89 N5 30.20S  
KENDALLVILLE + FAIR 45 43 92 CALM 30.23R  
 

 
 
INZ028-029-035-036-043>045-051>053-181100-  
WEST CENTRAL INDIANA  
 
CITY SKY/WX TMP DP RH WIND PRES REMARKS
 
CRAWFORDSVL + FAIR 48 45 88 N7 30.18R  
GREENCASTLE + FAIR 51 46 83 NE7 30.17R  
LAFAYETTE FAIR 53 46 77 NE9 30.20R  
TERRE HAUTE FAIR 52 48 86 N6 30.16R  
 

 
 
INZ030>032-037>040-046>048-054>057-064-065-181100-  
CENTRAL INDIANA  
 
CITY SKY/WX TMP DP RH WIND PRES REMARKS
 
ANDERSON + CLEAR 48 44 87 N3 30.18R  
FRANKFORT + FAIR N/A N/A N/A NE9 30.21R  
GREENWOOD *+ FAIR 52 46 78 NE7 30.16R  
INDIANAPOLIS FAIR 54 46 74 NE10 30.16R  
-EAGLE CREEK FAIR 53 44 71 NE6 30.16R  
KOKOMO + FAIR 48 45 89 N8 30.20R  
MARION + CLEAR 47 44 90 CALM 30.20R  
MT COMFORT *+ FAIR 46 46 100 N6 30.17R  
SHELBYVILLE CLEAR 53 46 77 N7 30.14R  
ZIONSVILLE + FAIR 47 45 91 N5 30.19R  
 

 
 
INZ033-034-041-042-049-050-058-059-181100-  
EAST CENTRAL INDIANA  
 
CITY SKY/WX TMP DP RH WIND PRES REMARKS
 
MUNCIE CLEAR 48 42 80 N3 30.17R  
PORTLAND + FAIR 46 43 87 N3 30.17S  
RICHMOND + FAIR 48 48 100 NE9 30.15R  
 

 
 
INZ060-061-067>069-081>083-085>088-181100-  
SOUTHWEST INDIANA  
 
CITY SKY/WX TMP DP RH WIND PRES REMARKS
 
EVANSVILLE FAIR 58 52 80 N6 30.11R  
HUNTINGBURG + FAIR 56 54 93 N6 30.11R  
WASHINGTON + FAIR 54 53 97 N3 30.13R  
 

 
 
INZ062-063-066-070>080-084-089>092-181100-  
SOUTH CENTRAL AND SOUTHEAST INDIANA  
 
CITY SKY/WX TMP DP RH WIND PRES REMARKS
 
BATESVILLE + CLOUDY 52 52 100 VRB6 30.14R  
BEDFORD + FAIR 54 48 82 N6 30.12R  
BLOOMINGTON FAIR 54 49 83 N8 30.14R  
FRENCH LICK *+ FAIR 55 50 82 NE7 30.11R  
MADISON *+ CLEAR 54 52 94 CALM 30.12R  
NORTH VERNON + CLEAR 50 46 87 N5 30.13R  
SEYMOUR + FAIR 57 50 77 N8 30.12R  
 

 
 
 
 
CLICK HERE TO GO TO PREVIOUS BULLETINS.

The Nexlab IN Page Main Text Page